Regional Weather Roundup
Issued by NWS

Home | Current Version | Previous Version | Text Only | Print | Product List | Glossary On
Versions: 1 2 3 4 5 6 7 8 9 10 11 12 13 14 15 16 17 18 19 20 21 22 23 24 25 26 27 28 29 30 31 32 33 34 35 36 37 38 39 40 41 42 43 44 45 46 47 48 49 50
000
ASUS42 KFFC 280110
RWRGA
WEATHER ROUNDUP FOR GEORGIA
NATIONAL WEATHER SERVICE PEACHTREE CITY GA
900 PM EDT MON JUL 27 2015

NOTE: "FAIR" INDICATES FEW OR NO CLOUDS BELOW 12,000 FEET WITH NO
SIGNIFICANT WEATHER AND/OR OBSTRUCTIONS TO VISIBILITY.

* = USE WITH CAUTION. THE STATIONS MARKED WITH AN ASTERISK MAY NOT
REPORT WEATHER SUCH AS PRECIPITATION, FOG, OR THUNDER AND ARE NOT
QUALITY CONTROLLED BY NWS.

THE REMARK "TC" DENOTES TEMPERATURE READING IN DEGREES CELSIUS.

GAZ001>058-280200-
NORTH GEORGIA

CITY           SKY/WX    TMP DP  RH WIND       PRES   REMARKS
ATLANTA        MOCLDY    81  68  64 NW5       29.97S
ATHENS         MOCLDY    86  71  60 VRB5      29.96S HX  91
CHAMBLEE       MOCLDY    83  71  67 CALM      29.97F
PEACHTREE CITY MOCLDY    83  73  72 NE3       29.96S
ROME           MOCLDY    80  74  81 S5        29.95R
WEST ATLANTA   MOCLDY    78  74  87 CALM      29.96S
GAINESVILLE    MOCLDY    82  72  71 NW3       30.01S
CARTERSVILLE   PTCLDY    81  74  79 CALM      29.97R


CITY           SKY/WX    TMP DP  RH WIND       PRES   REMARKS
DALTON*        MOCLDY    82  79  89 CALM      29.96R HX  93
LAWRENCEVILLE* CLEAR     82  66  57 CALM      29.97S
MARIETTA       MOCLDY    83  72  70 CALM      29.97F
KENNESAW*      PTCLDY    84  72  65 SW6       29.99S
BLAIRSVILLE*     N/A     77  65  66 CALM      30.05R
$$

GAZ059>098-102>109-280200-
CENTRAL GEORGIA

CITY           SKY/WX    TMP DP  RH WIND       PRES   REMARKS
AUGUSTA-BUSH   MOCLDY    84  68  58 SE5       29.91R
AUGUSTA-DANIEL MOCLDY    91  64  40 SE6       29.94R HX  92
COLUMBUS       CLOUDY    90  70  51 W5        29.92R HX  95
MACON          PTCLDY    85  71  63 CALM      29.92S HX  90
ROBINS AFB     PTCLDY    83  72  69 CALM      29.92R


CITY           SKY/WX    TMP DP  RH WIND       PRES   REMARKS
LAGRANGE*      PTCLDY    89  79  73 N3        29.94S HX 104
SYLVANIA*      CLEAR     85  78  78 SE3       29.94S HX  97
MILLEDGEVILLE* PTCLDY    86  64  48 CALM      29.92S
$$

GAZ099>101-110>166-280200-
SOUTH GEORGIA

CITY           SKY/WX    TMP DP  RH WIND       PRES   REMARKS
SAVANNAH       PTCLDY    82  76  81 E7        29.94R
VALDOSTA       MOCLDY    79  77  94 CALM      29.93S
ALMA           PTCLDY    82  77  84 SE3       29.93S HX  90
ST SIMONS      PTCLDY    82  77  84 SE5       29.93R HX  90
FT STEWART     CLEAR     82  75  80 E3        29.92R
ALBANY         PTCLDY    87  71  58 CALM      29.93S HX  93
HUNTER AFB     CLEAR     81  79  92 E2        29.92R HX  91
MOODY AFB      MOCLDY    80  75  84 VRB3      29.92S
BRUNSWICK      CLEAR     79  77  94 CALM      29.95R


CITY           SKY/WX    TMP DP  RH WIND       PRES   REMARKS
BAINBRIDGE*    MOCLDY    88  72  58 SE3       29.92R HX  94
MOULTRIE*      PTCLDY    82  73  74 CALM      29.95R
VIDALIA*       CLEAR     84  73  70 SE6       29.94R HX  91
WAYCROSS*      PTCLDY    83  81  91 CALM      29.94S HX  97
DOUGLAS*       MOCLDY    84  73  70 CALM      29.95S HX  91
$$


USA.gov is the U.S. government's official web portal to all federal, state and local government web resources and services.